Hourly Data Report for January 06, 2019

TORONTO CITY
ONTARIO
Current Station Operator: ECCC - MSC

43°40'00.000" N
79°24'00.000" W
112.50 m
6158355
71508
XTO

Download Data

Hourly Data (January 2019)
Hourly Data Report for January 6, 2019
TIME
LST
Temp Definition
°C
Dew Point Definition
°C
Rel Hum Definition
%
Precip. Amount Definition
mm

Wind Dir Definition
10's deg

Wind Spd Definition
km/h
Visibility Definition
km
Stn Press Definition
kPa
Hmdx Definition


Wind Chill Definition


Weather Definition


00:00 3.2 0.7 84 0.0 LegendMM LegendMM   99.31     LegendNANA
01:00 3.5 0.7 82 0.0 LegendMM LegendMM   99.38     LegendNANA
02:00 4.7 0.8 76 0.0 LegendMM LegendMM   99.52     LegendNANA
03:00 4.5 0.1 73 0.0 LegendMM LegendMM   99.64     LegendNANA
04:00 3.4 0.3 80 0.0 LegendMM LegendMM   99.77     LegendNANA
05:00 3.2 -2.7 65 0.0 LegendMM LegendMM   99.90     LegendNANA
06:00 2.5 -2.2 71 0.0 LegendMM LegendMM   100.06     LegendNANA
07:00 2.3 -2.7 70 0.0 LegendMM LegendMM   100.21     LegendNANA
08:00 2.1 -1.8 75 0.0 LegendMM LegendMM   100.35     LegendNANA
09:00 1.9 -1.7 77 0.0 LegendMM LegendMM   100.50     LegendNANA
10:00 2.1 -3.0 69 0.0 LegendMM LegendMM   100.65     LegendNANA
11:00 1.8 -7.8 49 0.0 LegendMM LegendMM   100.77     LegendNANA
12:00 1.7 -8.6 46 0.0 LegendMM LegendMM   100.83     LegendNANA
13:00 1.2 -8.8 47 0.0 LegendMM LegendMM   100.84     LegendNANA
14:00 0.5 -9.3 48 0.0 LegendMM LegendMM   100.99     LegendNANA
15:00 -0.5 -7.4 59 0.0 LegendMM LegendMM   101.12     LegendNANA
16:00 -0.7 -9.7 50 0.0 LegendMM LegendMM   101.25     LegendNANA
17:00 -1.9 -10.2 53 0.0 LegendMM LegendMM   101.35     LegendNANA
18:00 -2.3 -11.1 51 0.0 LegendMM LegendMM   101.48     LegendNANA
19:00 -2.8 -11.9 50 0.0 LegendMM LegendMM   101.58     LegendNANA
20:00 -3.7 -13.4 47 0.0 LegendMM LegendMM   101.67     LegendNANA
21:00 -4.6 -13.4 50 0.0 LegendMM LegendMM   101.73     LegendNANA
22:00 -4.9 -13.6 50 0.0 LegendMM LegendMM   101.78     LegendNANA
23:00 -5.3 -13.6 52 0.0 LegendMM LegendMM   101.79     LegendNANA

Notes on Data Quality.

Legend

  • E = Estimated
  • M = Missing
  • NA = Not Available*
  • [empty] = Indicates an unobserved value
Date modified: